Home > Weather > Szeged > Past weeks

Flag for Hungary Weather for the Past 2 Weeks in Szeged, Hungary

Now
50 °F

Passing clouds.


Feels Like: 47 °F
Forecast: 45 / 56 °F
Wind: 7 mph from Southeast

Location: Szeged

Current Time: Feb 14, 2016 at 11:18:00 AM

Latest Report: Feb 14, 2016 at 10:00 AM


Visibility: 25 mi

Pressure: 29.47 "Hg

Humidity: 75%

Dew point: 42 °F

Location of SzegedLocation

Historic Weather in Szeged — Graph

°F

Szeged Temperature Yesterday

Maximum temperature yesterday: 49 °F (at 3:00 PM)
Minimum temperature yesterday: 42 °F (at 6:00 AM)
Average temperature yesterday: 44 °F

High & Low Weather Summary for the Past Weeks

 TemperatureHumidityPressure
High60 °F (Feb 2, 2:00 PM)100% (Feb 1, 1:00 AM)30.43 "Hg (Feb 1, 1:00 AM)
Low28 °F (Feb 6, 6:00 AM)44% (Feb 11, 3:00 PM)29.21 "Hg (Feb 10, 11:00 AM)
Average43 °F81%29.94 "Hg
* Reported Jan 30 4:00 PM — Feb 14 10:00 AM, Szeged, Weather by CustomWeather, © 2016

Note: Actual official high and low records may vary slightly from our data, if they occured in-between our weather recording intervals... More about our weather records

Advertising

Szeged Weather History for the Previous 24 Hours

 ConditionsComfort  
Time TempWeatherWind HumidityBarometerVisibility
10:00 AM
Sun, Feb 14
50 °FPassing clouds.7 mph75%29.47 "Hg25 mi
9:00 AM46 °FPassing clouds.8 mph84%29.47 "Hg12 mi
8:00 AM41 °FPassing clouds.3 mph98%29.47 "Hg6 mi
7:00 AM40 °FPartly sunny.5 mph96%29.47 "Hg5 mi
6:00 AM39 °FOvercast.3 mph95%29.47 "Hg4 mi
5:00 AM39 °FLight rain. Overcast.5 mph92%29.47 "Hg5 mi
4:00 AM38 °FOvercast.6 mph93%29.47 "Hg6 mi
3:00 AM37 °FOvercast.6 mph95%29.47 "Hg6 mi
2:00 AM37 °FOvercast.5 mph99%29.47 "Hg5 mi
1:00 AM36 °FPassing clouds.3 mph97%29.47 "Hg5 mi
10:00 PM
Sat, Feb 13
43 °FOvercast.3 mph83%29.47 "Hg9 mi
9:00 PM43 °FOvercast.5 mph83%29.44 "Hg9 mi
8:00 PM44 °FOvercast.7 mph83%29.41 "Hg7 mi
7:00 PM43 °FLight rain. Overcast.6 mph96%29.41 "Hg6 mi
6:00 PM45 °FOvercast.6 mph86%29.38 "Hg9 mi
5:00 PM47 °FPartly sunny.5 mph79%29.35 "Hg9 mi
4:00 PM48 °FOvercast.5 mph83%29.35 "Hg9 mi
3:00 PM49 °FOvercast.2 mph87%29.32 "Hg9 mi
1:00 PM45 °FOvercast.7 mph88%29.32 "Hg7 mi
12:00 PM44 °FOvercast.5 mph92%29.32 "Hg6 mi
11:00 AM43 °FRain. Overcast.8 mph92%29.35 "Hg4 mi
Weather by CustomWeather, © 2016

See weather overviewHow to use our weather pages